Meteo pe oră la Bolshoe Frolovo

Astăzi, 6 Mai, Joi

Timp Temperatura Precipitaţii Vânt Presiune Umiditate
00:00 +5°C° 0 mm 2 m/s 745 mmHg 82%
01:00 +4°C° 0 mm 2 m/s 745 mmHg 84%
02:00 +4°C° 0 mm 2 m/s 745 mmHg 86%
03:00 +4°C° 0 mm 2 m/s 745 mmHg 89%
04:00 +5°C° 0 mm 2 m/s 746 mmHg 88%
05:00 +6°C° 0 mm 2 m/s 746 mmHg 87%
06:00 +7°C° 0 mm 2 m/s 746 mmHg 86%
07:00 +7°C° 0.1 mm 2 m/s 747 mmHg 85%
08:00 +8°C° 0.1 mm 3 m/s 747 mmHg 84%
09:00 +9°C° 0 mm 3 m/s 747 mmHg 83%
10:00 +11°C° 0 mm 3 m/s 747 mmHg 74%
11:00 +14°C° 0 mm 4 m/s 747 mmHg 65%
12:00 +17°C° 0 mm 4 m/s 747 mmHg 56%
13:00 +17°C° 0 mm 4 m/s 747 mmHg 54%
14:00 +18°C° 0 mm 4 m/s 747 mmHg 52%
15:00 +18°C° 0 mm 4 m/s 747 mmHg 50%
16:00 +17°C° 0 mm 4 m/s 747 mmHg 56%
17:00 +15°C° 0 mm 4 m/s 747 mmHg 62%
18:00 +16°C° 0 mm 3 m/s 747 mmHg 68%
19:00 +13°C° 0 mm 3 m/s 747 mmHg 71%
20:00 +12°C° 0 mm 3 m/s 747 mmHg 73%
21:00 +11°C° 0 mm 3 m/s 748 mmHg 76%
22:00 +11°C° 0 mm 3 m/s 747 mmHg 75%
23:00 +11°C° 0 mm 3 m/s 747 mmHg 75%

Mâine, 7 Mai, Vineri

Timp Temperatura Precipitaţii Vânt Presiune Umiditate
00:00 +10°C° 0 mm 4 m/s 747 mmHg 75%
01:00 +10°C° 0 mm 3 m/s 747 mmHg 75%
02:00 +9°C° 0 mm 3 m/s 747 mmHg 76%
03:00 +9°C° 0 mm 3 m/s 747 mmHg 76%
04:00 +8°C° 0 mm 4 m/s 747 mmHg 75%
05:00 +10°C° 0 mm 4 m/s 747 mmHg 73%
06:00 +10°C° 0 mm 4 m/s 747 mmHg 72%
07:00 +12°C° 0 mm 5 m/s 747 mmHg 67%
08:00 +13°C° 0 mm 6 m/s 747 mmHg 62%
09:00 +14°C° 0 mm 6 m/s 747 mmHg 57%
10:00 +15°C° 0 mm 6 m/s 747 mmHg 54%
11:00 +16°C° 0 mm 7 m/s 747 mmHg 50%
12:00 +17°C° 0 mm 7 m/s 747 mmHg 46%
13:00 +17°C° 0 mm 6 m/s 747 mmHg 48%
14:00 +16°C° 0 mm 6 m/s 747 mmHg 50%
15:00 +16°C° 0 mm 5 m/s 747 mmHg 52%
16:00 +16°C° 0.1 mm 5 m/s 747 mmHg 56%
17:00 +15°C° 0.1 mm 5 m/s 746 mmHg 60%
18:00 +14°C° 0.1 mm 5 m/s 746 mmHg 63%
19:00 +13°C° 0.1 mm 4 m/s 747 mmHg 71%
20:00 +12°C° 0.1 mm 3 m/s 748 mmHg 78%
21:00 +11°C° 0.1 mm 3 m/s 748 mmHg 86%
22:00 +10°C° 0.1 mm 2 m/s 748 mmHg 87%
23:00 +10°C° 0.1 mm 2 m/s 748 mmHg 89%

Poimâine, 8 Mai, Sâmbătă

Timp Temperatura Precipitaţii Vânt Presiune Umiditate
00:00 +9°C° 0.1 mm 2 m/s 749 mmHg 90%
01:00 +9°C° 0 mm 2 m/s 749 mmHg 90%
02:00 +8°C° 0 mm 2 m/s 749 mmHg 91%
03:00 +8°C° 0 mm 2 m/s 749 mmHg 91%
04:00 +8°C° 0 mm 2 m/s 749 mmHg 89%
05:00 +9°C° 0 mm 2 m/s 749 mmHg 87%
06:00 +9°C° 0 mm 2 m/s 749 mmHg 85%
07:00 +10°C° 0 mm 2 m/s 749 mmHg 82%
08:00 +13°C° 0 mm 2 m/s 749 mmHg 79%
09:00 +14°C° 0 mm 2 m/s 749 mmHg 75%
10:00 +14°C° 0 mm 3 m/s 749 mmHg 71%
11:00 +15°C° 0 mm 4 m/s 749 mmHg 67%
12:00 +17°C° 0 mm 4 m/s 748 mmHg 62%
13:00 +17°C° 0 mm 5 m/s 748 mmHg 58%
14:00 +19°C° 0 mm 5 m/s 748 mmHg 54%
15:00 +20°C° 0 mm 5 m/s 747 mmHg 50%
16:00 +19°C° 0 mm 5 m/s 747 mmHg 53%
17:00 +17°C° 0 mm 5 m/s 747 mmHg 57%
18:00 +16°C° 0 mm 5 m/s 746 mmHg 60%
19:00 +15°C° 0 mm 5 m/s 746 mmHg 62%
20:00 +15°C° 0 mm 5 m/s 746 mmHg 63%
21:00 +14°C° 0 mm 5 m/s 746 mmHg 65%
22:00 +14°C° 0 mm 5 m/s 746 mmHg 64%
23:00 +14°C° 0 mm 5 m/s 746 mmHg 62%

9 Mai, Duminică

Timp Temperatura Precipitaţii Vânt Presiune Umiditate
00:00 +14°C° 0 mm 6 m/s 746 mmHg 61%
01:00 +13°C° 0 mm 5 m/s 746 mmHg 64%
02:00 +12°C° 0 mm 4 m/s 745 mmHg 67%
03:00 +11°C° 0 mm 4 m/s 745 mmHg 70%
04:00 +12°C° 0 mm 5 m/s 745 mmHg 69%
05:00 +12°C° 0 mm 5 m/s 745 mmHg 67%
06:00 +13°C° 0 mm 6 m/s 745 mmHg 65%
07:00 +13°C° 0 mm 6 m/s 745 mmHg 65%
08:00 +14°C° 0 mm 6 m/s 745 mmHg 65%
09:00 +14°C° 0 mm 6 m/s 745 mmHg 64%
10:00 +15°C° 0 mm 6 m/s 745 mmHg 63%
11:00 +16°C° 0 mm 5 m/s 746 mmHg 62%
12:00 +17°C° 0 mm 5 m/s 746 mmHg 61%
13:00 +16°C° 0.7 mm 5 m/s 746 mmHg 67%
14:00 +16°C° 0.7 mm 5 m/s 746 mmHg 73%
15:00 +15°C° 0.7 mm 6 m/s 746 mmHg 80%
16:00 +14°C° 1.5 mm 5 m/s 747 mmHg 84%
17:00 +12°C° 1.5 mm 5 m/s 747 mmHg 89%
18:00 +10°C° 1.5 mm 4 m/s 748 mmHg 93%
19:00 +10°C° 0.3 mm 4 m/s 749 mmHg 92%
20:00 +8°C° 0.3 mm 4 m/s 749 mmHg 92%
21:00 +7°C° 0.3 mm 4 m/s 750 mmHg 91%
22:00 +7°C° 0.2 mm 4 m/s 750 mmHg 92%
23:00 +7°C° 0.2 mm 4 m/s 751 mmHg 92%

10 Mai, Luni

Timp Temperatura Precipitaţii Vânt Presiune Umiditate
00:00 +7°C° 0.2 mm 4 m/s 751 mmHg 92%
01:00 +7°C° 0.2 mm 4 m/s 751 mmHg 92%
02:00 +8°C° 0.2 mm 3 m/s 752 mmHg 92%
03:00 +8°C° 0.2 mm 3 m/s 752 mmHg 92%
04:00 +7°C° 0.2 mm 4 m/s 753 mmHg 92%
05:00 +7°C° 0.2 mm 4 m/s 754 mmHg 91%
06:00 +7°C° 0.2 mm 5 m/s 754 mmHg 91%
07:00 +7°C° 0 mm 5 m/s 755 mmHg 90%
08:00 +7°C° 0 mm 5 m/s 755 mmHg 89%
09:00 +7°C° 0 mm 5 m/s 756 mmHg 88%
10:00 +7°C° 0.1 mm 4 m/s 756 mmHg 86%
11:00 +7°C° 0.1 mm 4 m/s 756 mmHg 84%
12:00 +8°C° 0.1 mm 4 m/s 756 mmHg 83%
13:00 +8°C° 0 mm 4 m/s 757 mmHg 80%
14:00 +10°C° 0 mm 3 m/s 757 mmHg 78%
15:00 +10°C° 0 mm 3 m/s 757 mmHg 76%
16:00 +12°C° 0 mm 2 m/s 757 mmHg 77%
17:00 +12°C° 0 mm 2 m/s 757 mmHg 77%
18:00 +12°C° 0 mm 2 m/s 757 mmHg 77%
19:00 +10°C° 0 mm 2 m/s 757 mmHg 79%
20:00 +9°C° 0 mm 2 m/s 758 mmHg 81%
21:00 +8°C° 0 mm 2 m/s 758 mmHg 83%
22:00 +8°C° 0 mm 3 m/s 758 mmHg 83%
23:00 +7°C° 0 mm 3 m/s 758 mmHg 82%

11 Mai, Marţi

Timp Temperatura Precipitaţii Vânt Presiune Umiditate
00:00 +7°C° 0 mm 3 m/s 758 mmHg 82%
01:00 +5°C° 0 mm 3 m/s 758 mmHg 82%
02:00 +5°C° 0 mm 3 m/s 759 mmHg 82%
03:00 +4°C° 0 mm 3 m/s 759 mmHg 82%
04:00 +5°C° 0 mm 3 m/s 759 mmHg 80%
05:00 +7°C° 0 mm 3 m/s 759 mmHg 79%
06:00 +8°C° 0 mm 3 m/s 760 mmHg 77%
07:00 +9°C° 0 mm 3 m/s 760 mmHg 70%
08:00 +11°C° 0 mm 4 m/s 760 mmHg 64%
09:00 +13°C° 0 mm 4 m/s 760 mmHg 58%
10:00 +14°C° 0 mm 4 m/s 760 mmHg 54%
11:00 +15°C° 0 mm 4 m/s 760 mmHg 50%
12:00 +17°C° 0 mm 4 m/s 760 mmHg 46%
13:00 +17°C° 0 mm 4 m/s 759 mmHg 45%
14:00 +17°C° 0 mm 4 m/s 759 mmHg 44%
15:00 +18°C° 0 mm 3 m/s 759 mmHg 43%
16:00 +17°C° 0 mm 3 m/s 759 mmHg 49%
17:00 +16°C° 0 mm 3 m/s 759 mmHg 54%
18:00 +16°C° 0 mm 2 m/s 759 mmHg 59%
19:00 +14°C° 0 mm 2 m/s 759 mmHg 60%
20:00 +13°C° 0 mm 2 m/s 759 mmHg 61%
21:00 +12°C° 0 mm 1 m/s 759 mmHg 62%
22:00 +12°C° 0 mm 2 m/s 759 mmHg 62%
23:00 +12°C° 0 mm 2 m/s 759 mmHg 63%
Arată mai mult

Formular de consimțământ

Meteoprog și furnizorii noștri de servicii pot stoca și accesa date personale, precum cookies, identificatori de dispozitiv sau alte tehnologii similare pe dispozitivul dumneavoastră și procesa astfel de date pentru a personaliza conținutul și reclamele, dar și pentru a oferi caracteristici de social media și pentru a analiza traficul.

  • Stocarea și/sau accesarea informațiilor pe dispozitivul dumneavoastră

    Cookies, identificatori de dispozitiv sau alte informații pot fi stocate sau accesate pe dispozitiv în scopurile indicate mai sus.

  • Reclame și conținut personalizat, evaluarea reclamelor și a conținutului, informații despre audiențe și dezvoltarea produselor

    Reclamele și conținutul pot fi personalizate pe baza unui profil. Pot fi adăugate date suplimentare pentru a personaliza mai bine reclamele și conținutul. Performanța reclamelor și conținutului poate fi măsurată. Pot fi obținute informații despre utilizatorii care au văzut reclamele și conținutul. Aceste date pot fi utilizate pentru a dezvolta sau îmbunătăți experiența utilizatorilor, sistemele și software-ul.

Dând clic pe ‘Sunt de acord’, permiteți utilizarea cookie-urilor menționate, a identificatorilor de dispozitiv, balizelor web sau altor tehnologii similare. Setările pot fi modificate din browser-ul dispozitivului dumneavoastră.

În anumite scopuri, interesele legitime pot prima asupra consimțământului. Puteți citi mai multe informații în acest sens în Politica privind Confidențialitatea Datelor și Cookie.